Hourly Data Report for July 24, 2019

PITT MEADOWS CS
BRITISH COLUMBIA
Current Station Operator: ECCC - MSC

49°12'29.964" N
122°41'24.076" W
5.00 m
1106178
71775
WMM

Download Data

Hourly Data (July 2019)
Hourly Data Report for July 24, 2019
TIME
LST
Temp Definition
°C
Dew Point Definition
°C
Rel Hum Definition
%
Precip. Amount Definition
mm

Wind Dir Definition
10's deg

Wind Spd Definition
km/h
Visibility Definition
km
Stn Press Definition
kPa
Hmdx Definition


Wind Chill Definition


Weather Definition


00:00 16.7 9.9 64 0.0 12 12   101.86     LegendNANA
01:00 16.1 10.1 67 0.0 13 12   101.90     LegendNANA
02:00 15.7 10.5 71 0.0 10 13   101.95     LegendNANA
03:00 14.0 12.1 88 3.1 6 11   102.08     LegendNANA
04:00 14.1 12.5 90 0.0 8 7   102.17     LegendNANA
05:00 14.1 12.6 91 0.1 8 7   102.21     LegendNANA
06:00 14.6 12.7 88 0.0 8 8   102.26     LegendNANA
07:00 14.9 12.6 86 0.2 9 7   102.29     LegendNANA
08:00 16.0 11.9 77 0.1 13 6   102.35     LegendNANA
09:00 15.9 12.1 78 0.2 9 10   102.39     LegendNANA
10:00 17.4 12.4 73 0.0 13 5   102.44     LegendNANA
11:00 18.5 11.1 62 0.0 12 4   102.48     LegendNANA
12:00 19.0 10.1 56 0.0 8 4   102.51     LegendNANA
13:00 20.1 12.1 60 0.1 6 7   102.53     LegendNANA
14:00 20.7 12.0 57 0.1 7 9   102.51     LegendNANA
15:00 22.2 12.0 52 0.1 8 10   102.47     LegendNANA
16:00 21.8 11.1 51 0.0 9 8   102.41     LegendNANA
17:00 22.5 10.5 47 0.0 11 6   102.34     LegendNANA
18:00 22.4 10.8 48 0.0 10 6   102.28     LegendNANA
19:00 21.0 12.3 57 0.0 2 8   102.23     LegendNANA
20:00 18.7 12.2 66 0.0 2 4   102.20     LegendNANA
21:00 17.2 12.1 72 0.0 1 4   102.20     LegendNANA
22:00 16.6 12.2 75 0.0 33 2   102.18     LegendNANA
23:00 15.1 12.3 84 0.0 4 1   102.19     LegendNANA

Notes on Data Quality.

Legend

  • E = Estimated
  • M = Missing
  • NA = Not Available*
  • [empty] = Indicates an unobserved value
Date modified: